Mansfield, OH

6:12 AM EST on November 21, 2017 (GMT -0500)
Mansfield Lahm Regional

Weather History for KMFD - October, 2012

Change the Weather History Date:

Thursday, October 18, 2012

  Actual Average Record
Temperature  
Mean Temperature 55 °F 51 °F  
Max Temperature 63 °F 61 °F 85 °F (1938)
Min Temperature 46 °F 41 °F 21 °F (1939)
Degree Days  
Heating Degree Days 10 14  
Month to date heating degree days 229 208  
Since 1 July heating degree days 390 358  
Cooling Degree Days 0 0  
Month to date cooling degree days 3 5  
Year to date cooling degree days 950 630  
Growing Degree Days 6 (Base 50)    
Moisture  
Dew Point 41 °F    
Average Humidity 56    
Maximum Humidity 80    
Minimum Humidity 32    
Precipitation  
Precipitation 0.47 in 0.09 in 0.96 in (1990)
Month to date precipitation 3.05 1.69  
Year to date precipitation 31.23 35.84  
Snow  
Snow 0.00 in 0.00 in - ()
Month to date snowfall 0.0 0.1  
Since 1 July snowfall 0.0 0.1  
Since 1 September snowfall 0.0 0.1  
Snow Depth 0.00 in    
Sea Level Pressure  
Sea Level Pressure 29.62 in    
Wind  
Wind Speed 14 mph (South)    
Max Wind Speed 26 mph    
Max Gust Speed 38 mph    
Visibility 9 miles    
Events Rain    
T = Trace of Precipitation, MM = Missing Value Source: NWS Daily Summary

Daily Weather History Graph

Daily Weather History Graph

Search for Another Location

Airport or City:

Trip Planner

Search our weather history database for the weather conditions in past years. The results will help you decide how hot, cold, wet, or windy it might be!

Date:

Astronomy

Oct. 18, 2012 Rise Set
Actual Time 7:45 AM EDT 6:44 PM EDT
Civil Twilight 7:17 AM EDT 7:12 PM EDT
Nautical Twilight 6:45 AM EDT 7:44 PM EDT
Astronomical Twilight 6:13 AM EDT 8:15 PM EDT
Moon 11:27 AM EDT (10/18) 9:16 PM EDT (10/18)
Length of Visible Light 11h 54m
Length of Day
10h 59m
Waxing Crescent, 14% of the Moon is Illuminated
Oct 18
Waxing Crescent
Oct 21
First Quarter
Oct 29
Full
Nov 6
Last Quarter
Nov 13
New

Hourly Weather History & Observations

Time (EDT) Temp. Dew Point Humidity Pressure Visibility Wind Dir Wind Speed Gust Speed Precip Events Conditions
12:52 AM 63.0 °F 48.9 °F 60% 29.63 in 10.0 mi SSE 19.6 mph 24.2 mph N/A   Clear
1:52 AM 61.0 °F 46.0 °F 58% 29.61 in 10.0 mi SSE 16.1 mph 24.2 mph N/A   Clear
2:52 AM 60.1 °F 43.0 °F 53% 29.59 in 10.0 mi SSE 19.6 mph 25.3 mph N/A   Clear
3:52 AM 60.1 °F 43.0 °F 53% 29.57 in 10.0 mi SSE 19.6 mph 26.5 mph N/A   Mostly Cloudy
4:52 AM 59.0 °F 43.0 °F 55% 29.55 in 10.0 mi SSE 20.7 mph 27.6 mph N/A   Partly Cloudy
5:52 AM 57.9 °F 43.0 °F 58% 29.53 in 10.0 mi SSE 17.3 mph 26.5 mph N/A   Clear
6:52 AM 57.9 °F 43.0 °F 58% 29.52 in 10.0 mi SSE 20.7 mph 28.8 mph N/A   Clear
7:52 AM 57.9 °F 44.1 °F 60% 29.51 in 10.0 mi SSE 19.6 mph 28.8 mph N/A   Scattered Clouds
8:52 AM 55.9 °F 46.9 °F 72% 29.52 in 10.0 mi SSE 16.1 mph 24.2 mph 0.01 in   Overcast
9:52 AM 59.0 °F 46.9 °F 64% 29.52 in 10.0 mi South 17.3 mph 31.1 mph N/A   Mostly Cloudy
10:47 AM 51.8 °F 48.2 °F 88% 29.60 in 3.0 mi SW 23.0 mph 38.0 mph 0.07 in Rain Heavy Rain
10:52 AM 50.0 °F 46.9 °F 89% 29.60 in 2.0 mi SW 15.0 mph 38.0 mph 0.14 in Rain Rain
11:02 AM 50.0 °F 48.2 °F 94% 29.60 in 3.0 mi SW 11.5 mph 23.0 mph 0.03 in Rain Rain
11:52 AM 51.1 °F 48.0 °F 89% 29.61 in 10.0 mi SW 13.8 mph 20.7 mph 0.06 in   Overcast
12:52 PM 54.0 °F 46.0 °F 75% 29.62 in 10.0 mi North - - N/A   Overcast
1:52 PM 55.9 °F 42.1 °F 60% 29.64 in 5.0 mi SSW 17.3 mph 32.2 mph 0.26 in   Haze
2:52 PM 59.0 °F 37.0 °F 44% 29.63 in 10.0 mi WSW 12.7 mph - N/A   Partly Cloudy
3:52 PM 60.1 °F 33.1 °F 36% 29.65 in 10.0 mi SW 13.8 mph 25.3 mph N/A   Partly Cloudy
4:52 PM 60.1 °F 30.9 °F 33% 29.66 in 10.0 mi SW 9.2 mph 17.3 mph N/A   Scattered Clouds
5:52 PM 57.0 °F 33.1 °F 40% 29.68 in 10.0 mi SSW 9.2 mph - N/A   Clear
6:52 PM 51.1 °F 33.1 °F 50% 29.69 in 10.0 mi South 6.9 mph - N/A   Clear
7:52 PM 48.9 °F 33.1 °F 54% 29.71 in 10.0 mi SSE 6.9 mph - N/A   Clear
8:52 PM 50.0 °F 33.1 °F 52% 29.74 in 10.0 mi SSE 10.4 mph - N/A   Clear
9:52 PM 48.0 °F 32.0 °F 54% 29.75 in 10.0 mi SE 9.2 mph - N/A   Clear
10:52 PM 48.0 °F 35.1 °F 61% 29.75 in 10.0 mi SE 10.4 mph - N/A   Clear
11:52 PM 48.0 °F 42.1 °F 80% 29.74 in 10.0 mi SSE 11.5 mph - N/A   Clear